This is the latest recevied weather packets stored in our database for station/object VO2AGO. If no packets are shown the sender has not sent any weather packets the latest 10 day(s).
| Time | Temp. | Humidity | Pressure | Rain* | Wind** | Luminosity | Snow |
|---|---|---|---|---|---|---|---|
| 1777387851 | 16.67° C | - | - | - | 0 m/s | 1103 W/m² | - |
| 1777387401 | 17.78° C | - | - | - | 0 m/s | 1124 W/m² | - |
| 1777386952 | 16.67° C | - | - | - | 0 m/s | 1110 W/m² | - |
| 1777386503 | 16.67° C | - | - | - | 0 m/s | 1117 W/m² | - |
| 1777386051 | 14.44° C | - | - | - | 0 m/s | 1111 W/m² | - |
| 1777385602 | 17.78° C | - | - | - | 0 m/s | 1120 W/m² | - |
| 1777385152 | 16.11° C | - | - | - | 0 m/s | 1113 W/m² | - |
| 1777384702 | 15.56° C | - | - | - | 0 m/s | 1125 W/m² | - |
| 1777384253 | 16.11° C | - | - | - | 0 m/s | 1102 W/m² | - |
| 1777383801 | 14.44° C | - | - | - | 0 m/s | 1117 W/m² | - |
| 1777383352 | 15° C | - | - | - | 0 m/s | 1117 W/m² | - |
| 1777382902 | 14.44° C | 47% | 102.4 hPa | 0 mm | 0 m/s | 1960 W/m² | - |
| 1777382452 | 15.56° C | 45% | 102.4 hPa | 0 mm | 0 m/s | 1834 W/m² | - |
| 1777382001 | 17.22° C | 44% | 102.4 hPa | 0 mm | 0 m/s | 1970 W/m² | - |
| 1777381552 | 17.22° C | 46% | 102.4 hPa | 0 mm | 0 m/s | 1806 W/m² | - |
| 1777381102 | 15.56° C | 47% | 102.4 hPa | 0 mm | 0 m/s | 1823 W/m² | - |
| 1777380652 | 15.56° C | 47% | 102.4 hPa | 0 mm | 0 m/s | 1638 W/m² | - |
| 1777380201 | 14.44° C | 56% | 102.4 hPa | 0 mm | 0 m/s | 1613 W/m² | - |
| 1777379752 | 13.89° C | 55% | 102.4 hPa | 0 mm | 0 m/s | 1473 W/m² | - |
| 1777379303 | 13.89° C | 58% | 102.4 hPa | 0 mm | 0 m/s | 1500 W/m² | - |
| 1777378852 | 12.78° C | 74% | 102.4 hPa | 0 mm | 0 m/s | 1419 W/m² | - |
| 1777378402 | 11.11° C | 66% | 102.4 hPa | 0 mm | 0 m/s | 1331 W/m² | - |
| 1777377952 | 10.56° C | 90% | 102.4 hPa | 0 mm | 0 m/s | 1312 W/m² | - |
| 1777377502 | 8.89° C | - | - | - | 0 m/s | 1227 W/m² | - |
| 1777377052 | 6.67° C | - | - | - | 0 m/s | 1131 W/m² | - |
* Rain since midnight (hover to see other rain measurements)
** Current wind speed in m/s (hover to see current wind gust speed)